Flag for U.S.A. Weather past 2 weeks in Yonkers, New York, U.S.A.

Now
63 °F

Overcast.


Feels Like: 63 °F
Forecast: 58 / 67 °F
Wind: 5 mph from Northeast

Location: Teterboro Airport

Current Time: Oct 1, 2014 at 11:54:46 PM

Latest Report: Oct 1, 2014 at 10:51 PM


Visibility: 10 mi

Pressure: 30.07 "Hg

Humidity: 75%

Dew point: 55 °F

Location of YonkersLocation

Historic Weather in Yonkers — Graph

°F

Yonkers temperature yesterday

Maximum temperature yesterday: 69 °F (at 7:51 AM)
Minimum temperature yesterday: 64 °F (at 10:51 PM)
Average temperature yesterday: 67 °F

Past Weeks' High & Low Weather Summary

 TemperatureHumidityPressure
High87 °F (Sep 28, 3:51 PM)94% (Sep 21, 6:00 AM)30.55 "Hg (Sep 21, 6:00 AM)
Low47 °F (Sep 23, 3:51 AM)26% (Sep 18, 4:51 PM)29.60 "Hg (Sep 21, 6:51 PM)
Average66 °F64%30.11 "Hg
* Reported Sep 16 9:51 PM — Oct 1 9:51 PM, Yonkers, Weather by CustomWeather, © 2014

Note: Actual official high and low records may vary slightly from our data, if they occured in-between our weather recording intervals... More about our weather records

Advertising

Yonkers weather history for previous 24 hours

 ConditionsComfort  
Time TempWeatherWind HumidityBarometerVisibility
9:51 PM
Oct 1
64 °FMostly cloudy.5 mph75%30.06 "Hg10 mi
8:51 PM64 °FMostly cloudy.No wind75%30.06 "Hg10 mi
7:51 PM64 °FMostly cloudy.5 mph78%30.05 "Hg10 mi
6:51 PM65 °FOvercast.3 mph78%30.03 "Hg10 mi
5:51 PM65 °FOvercast.3 mph81%30.02 "Hg10 mi
4:51 PM64 °FLight rain. More clouds than sun.3 mph84%30.02 "Hg4 mi
3:51 PM64 °FLight rain. Mostly cloudy.7 mph81%30.02 "Hg4 mi
2:51 PM64 °FLight rain. Mostly cloudy.6 mph81%30.03 "Hg5 mi
1:58 PM64 °FLight rain. Mostly cloudy.7 mph83%30.03 "Hg3 mi
12:51 PM63 °FLight rain. Mostly cloudy.6 mph87%30.04 "Hg4 mi
11:51 AM64 °FLight rain. Overcast.7 mph75%30.05 "Hg7 mi
10:51 AM63 °FLight rain. Overcast.8 mph81%30.05 "Hg10 mi
9:51 AM62 °FLight rain. Mostly cloudy.8 mph83%30.03 "Hg4 mi
8:51 AM62 °FLight rain. More clouds than sun.6 mph83%30.02 "Hg4 mi
7:51 AM63 °FMostly cloudy.7 mph78%30.01 "Hg10 mi
6:51 AM62 °FMostly cloudy.5 mph78%30.00 "Hg10 mi
5:51 AM62 °FMostly cloudy.6 mph78%29.98 "Hg10 mi
4:51 AM62 °FOvercast.7 mph78%29.98 "Hg10 mi
3:51 AM63 °FOvercast.6 mph75%29.98 "Hg10 mi
2:51 AM63 °FOvercast.5 mph78%29.98 "Hg10 mi
1:51 AM63 °FOvercast.5 mph78%29.98 "Hg10 mi
12:51 AM63 °FMostly cloudy.8 mph78%29.98 "Hg10 mi
11:51 PM
Sep 30
64 °FMostly cloudy.5 mph75%29.98 "Hg10 mi
Weather by CustomWeather, © 2014

See weather overviewHow to use our weather pages